TimeCST,TemperatureF,Dew PointF,Humidity,Sea Level PressureIn,VisibilityMPH,Wind Direction,Wind SpeedMPH,Gust SpeedMPH,PrecipitationIn,Events,Conditions,WindDirDegrees,DateUTC
12:53 AM,34.0,28.9,82,30.13,10.0,Calm,Calm,-,N/A,,Clear,0,2013-02-04 06:53:00
1:53 AM,33.1,27.0,78,30.12,10.0,Calm,Calm,-,N/A,,Clear,0,2013-02-04 07:53:00
2:53 AM,34.0,28.0,79,30.10,10.0,Calm,Calm,-,N/A,,Clear,0,2013-02-04 08:53:00
4:53 AM,34.0,28.0,79,30.11,10.0,Calm,Calm,-,N/A,,Clear,0,2013-02-04 10:53:00
5:53 AM,33.1,28.9,85,30.11,10.0,Calm,Calm,-,N/A,,Clear,0,2013-02-04 11:53:00
6:53 AM,33.1,28.9,85,30.11,10.0,South,3.5,-,N/A,,Clear,170,2013-02-04 12:53:00
7:53 AM,35.1,30.0,82,30.11,10.0,SE,4.6,-,N/A,,Clear,130,2013-02-04 13:53:00
8:53 AM,39.0,30.9,73,30.12,10.0,Calm,Calm,-,N/A,,Clear,0,2013-02-04 14:53:00
9:53 AM,43.0,32.0,65,30.11,10.0,SE,5.8,-,N/A,,Clear,140,2013-02-04 15:53:00
10:53 AM,46.0,32.0,58,30.10,10.0,SSE,5.8,-,N/A,,Clear,160,2013-02-04 16:53:00
11:53 AM,50.0,30.9,48,30.07,10.0,South,5.8,-,N/A,,Mostly Cloudy,180,2013-02-04 17:53:00
12:53 PM,52.0,28.9,41,30.03,10.0,South,6.9,-,N/A,,Scattered Clouds,170,2013-02-04 18:53:00
1:53 PM,54.0,30.0,40,30.00,10.0,South,8.1,-,N/A,,Partly Cloudy,170,2013-02-04 19:53:00
2:53 PM,55.9,28.0,34,29.99,10.0,SSW,4.6,-,N/A,,Scattered Clouds,210,2013-02-04 20:53:00
3:53 PM,55.9,28.9,36,29.99,10.0,SSW,5.8,-,N/A,,Mostly Cloudy,200,2013-02-04 21:53:00
4:53 PM,53.1,30.0,41,29.99,10.0,South,9.2,-,N/A,,Overcast,190,2013-02-04 22:53:00
5:53 PM,50.0,30.9,48,30.00,10.0,South,4.6,-,N/A,,Overcast,180,2013-02-04 23:53:00
6:53 PM,48.9,32.0,52,29.98,10.0,South,5.8,-,N/A,,Overcast,170,2013-02-05 00:53:00
7:53 PM,50.0,32.0,50,29.98,10.0,South,6.9,-,N/A,,Overcast,190,2013-02-05 01:53:00
8:53 PM,50.0,32.0,50,29.97,10.0,South,5.8,-,N/A,,Overcast,190,2013-02-05 02:53:00
9:53 PM,50.0,34.0,54,29.97,10.0,South,4.6,-,0.00,Rain,Light Rain,180,2013-02-05 03:53:00
10:53 PM,50.0,33.1,52,29.96,10.0,South,3.5,-,0.00,,Overcast,180,2013-02-05 04:53:00
11:53 PM,51.1,33.1,50,29.95,10.0,Calm,Calm,-,N/A,,Overcast,0,2013-02-05 05:53:00